Regional Weather Roundup
Issued by NWS

Home | Current Version | Previous Version | Graphics & Text | Print | Product List | Glossary Off
Versions: 1 2 3 4 5 6 7 8 9 10 11 12 13 14 15 16 17 18 19 20 21 22 23 24 25 26 27 28 29 30 31 32 33 34 35 36 37 38 39 40 41 42 43 44 45 46 47 48 49 50

000
ASUS43 KTOP 191459
RWRKS

WEATHER ROUNDUP FOR KANSAS
NATIONAL WEATHER SERVICE GOODLAND KS
900 AM CST MON FEB 19 2018

NOTE:  "FAIR" INDICATES FEW OR NO CLOUDS BELOW 12,000 FEET WITH NO
SIGNIFICANT WEATHER AND/OR OBSTRUCTIONS TO VISIBILITY.

KSZ001>006-013>018-027>032-041>047-191600-
NORTHWEST KANSAS

CITY           SKY/WX    TMP DP  RH WIND       PRES   REMARKS
GOODLAND       LGT SNOW  14  10  84 N17       29.79R FOG     WCI  -3
HILL CITY      CLOUDY    19  14  81 N22       29.85R WCI   2
RUSSELL        CLOUDY    23  20  88 N15       29.82R WCI  10
$$

KSZ061>065-074>080-084>089-191600-
SOUTHWEST KANSAS

CITY           SKY/WX    TMP DP  RH WIND       PRES   REMARKS
DODGE CITY     CLOUDY    23 N/A N/A N20       29.80R WCI   8
ELKHART        CLOUDY    26  24  93 N15       29.78R WCI  13
GARDEN CITY    CLOUDY    21  17  84 N16       29.81R WCI   7
GREAT BEND     CLOUDY    23  19  85 N18       29.83R WCI   9
LIBERAL        CLOUDY    24  20  84 N17       29.80R WCI  11
$$

KSZ066>073-081>083-090>101-191600-
SOUTHEAST KANSAS

CITY           SKY/WX    TMP DP  RH WIND       PRES   REMARKS
CHANUTE        CLOUDY    65  60  84 S21G26    29.71F
COFFEYVILLE    CLOUDY    65  61  87 S21G30    29.73S
HUTCHINSON     CLOUDY    30  27  88 N14G24    29.78R WCI  19
MEDICINE LODGE   N/A     30  26  85 N17G28    29.78R WCI  18
NEWTON         CLOUDY    30  28  92 N17       29.78R WCI  18
PARSONS        LGT RAIN  65  61  87 S21G30    29.72F
WICHITA INTL   CLOUDY    35  30  82 N20G28    29.76R WCI  24
WICHITA JABRA  CLOUDY    34  30  85 NW17      29.76R WCI  23
WICHITA MCCONL CLOUDY    35  29  77 N16       29.75R WCI  25
WINFIELD       CLOUDY    46  40  79 NW14      29.76R
$$

KSZ007>012-019>026-033>040-048>060-102>105-191600-
NORTHEAST KANSAS

CITY           SKY/WX    TMP DP  RH WIND       PRES   REMARKS
CONCORDIA      CLOUDY    22  20  92 NW16      29.82R WCI   8
EMPORIA        CLOUDY    40  33  76 NW13      29.73R WCI  32
LAWRENCE       CLOUDY    53  48  83 W17       29.68R
MANHATTAN      CLOUDY    31  27  85 VRB7      29.79R
OLATHE IND     CLOUDY    65  59  81 S20G29    29.68R
OLATHE EXE     CLOUDY    64  59  83 S20G26    29.67R
SALINA         CLOUDY    26  23  88 NW22      29.83R WCI  12
TOPEKA BILLARD CLOUDY    39  37  92 W15G22    29.73R WCI  31
TOPEKA FORBES  CLOUDY    39  36  89 NW18      29.72R FOG     WCI  30
$$




USA.gov is the U.S. government's official web portal to all federal, state and local government web resources and services.